TIME,DELAY(SENSOR),PRES,T(CTD),SAL,OXYGEN,RAWTEMP,T(OPTODE),TCPHASE,TURBIDITY,TURBIDITY_GAIN,FLUOR,BETA,CDOM,ED411.5,ED443.8,ED489.6,PAR,COMP,TILT,TILTY(TILT),CHECK
1341996740,6468,253.7299957275390600,4.9124999046325680,34.9864997863769500,350.0010070800781000,761.4835815429688000,4.8843421936035160,34.1036911010742200,16,3,50,104,64,2147245805,2147559418,2147571802,2147361910,2424,0,-12,46609
1341996801,6466,250.6100006103515600,4.9127998352050780,34.9860000610351560,350.1098937988281000,761.4771728515625000,4.8845648765563965,34.0998687744140600,17,3,48,101,64,2147244607,2147560466,2147573727,2147359350,1919,0,-12,44386
1341996862,6468,247.4400024414062500,4.9127001762390140,34.9859008789062500,350.1343994140625000,761.4744873046875000,4.8846611976623535,34.0990104675293000,16,3,49,105,64,2147245005,2147558957,2147574486,2147362532,1455,0,-12,65504
1341996923,6468,244.2899932861328000,4.9121999740600590,34.9863014221191400,350.1429138183594000,761.4758300781250000,4.8846149444580080,34.0986785888671900,16,3,48,103,64,2147243912,2147558825,2147572553,2147362166,896,0,-12,48836
1341996984,6467,241.1799926757812500,4.9123997688293460,34.9856986999511700,350.1560058593750000,761.4818725585938000,4.8844008445739750,34.0984916687011700,16,3,49,104,64,2147244662,2147558335,2147572644,2147358431,152,0,-12,64674
1341997045,6468,238.1199951171875000,4.9117999076843260,34.9860992431640600,350.0971984863281000,761.4849853515625000,4.8842949867248535,34.1006202697753900,16,3,49,100,64,2147245279,2147563903,2147572831,2147361508,2883,0,-12,8781
1341997106,6468,235.0500030517578000,4.9116001129150390,34.9861984252929700,350.0086059570312500,761.4885253906250000,4.8841738700866700,34.1035690307617200,16,3,49,102,64,2147242518,2147561581,2147574020,2147358888,2319,0,-12,57230
1341997167,6504,231.9799957275390600,4.9116001129150390,34.9859008789062500,350.1276855468750000,761.4959106445312000,4.8839130401611330,34.0998497009277340,16,3,49,102,64,2147241906,2147561074,2147573174,2147361951,1832,0,-12,14656
1341997228,6468,229.0000000000000000,4.9113001823425290,34.9860992431640600,350.0262145996094000,761.5012207031250000,4.8837261199951170,34.1032905578613300,17,3,48,108,64,2147244259,2147560484,2147571802,2147360086,1367,0,-12,8839
1341997289,6469,226.0399932861328000,4.9109001159667970,34.9863014221191400,350.1192932128906000,761.5048828125000000,4.8835959434509280,34.1004600524902340,16,3,50,101,64,2147244273,2147560653,2147572123,2147363789,915,0,-11,4371
1341997352,6468,222.9799957275390600,4.9106001853942870,34.9861984252929700,350.1182861328125000,761.5128173828125000,4.8833217620849610,34.1004600524902340,16,3,48,102,64,2147242367,2147561499,2147574147,2147361855,122,0,-12,4112
1341997413,6466,220.0200042724609400,4.9106001853942870,34.9860000610351560,350.0723876953125000,761.5194702148438000,4.8830847740173340,34.1018600463867200,16,3,49,103,64,2147244300,2147558641,2147572264,2147362134,2981,0,-12,56497
1341997476,6468,216.9700012207031200,4.9099998474121090,34.9864006042480500,350.0888977050781000,761.5233154296875000,4.8829560279846190,34.1016082763671900,16,3,48,105,64,2147240954,2147561229,2147575213,2147361110,2330,0,-12,55697
1341997537,6503,214.0099945068359400,4.9106998443603520,34.9855995178222660,350.1304016113281000,761.5302124023438000,4.8827099800109860,34.1003189086914060,12,3,48,105,64,2147243866,2147562148,2147575931,2147360305,1842,0,-12,19809
1341997600,6469,210.9700012207031200,4.9098000526428220,34.9864006042480500,350.1856994628906000,761.5386962890625000,4.8824119567871090,34.0988883972168000,16,3,48,102,64,2147247076,2147559163,2147576259,2147356036,1370,0,-12,41003
1341997661,6468,208.0599975585937500,4.9098000526428220,34.9860000610351560,350.2869873046875000,761.5405883789062000,4.8823451995849610,34.0952987670898440,16,3,48,103,65,2147245010,2147558321,2147578893,2147360817,853,0,-12,32800
1341997724,6467,205.0599975585937500,4.9095001220703125,34.9860992431640600,350.2679138183594000,761.5521850585938000,4.8819389343261720,34.0961799621582000,16,3,49,102,64,2147243849,2147562495,2147578057,2147364433,153,0,-12,51866
1341997785,6468,202.1499938964843800,4.9091000556945800,34.9864006042480500,350.2705993652344000,761.5546264648438000,4.8818569183349610,34.0963211059570300,16,3,48,102,64,2147244306,2147560378,2147577458,2147360237,3001,0,-12,62125
1341997848,6468,199.1799926757812500,4.9092001914978030,34.9860992431640600,350.2161865234375000,761.5573730468750000,4.8817601203918460,34.0979118347168000,16,3,48,103,64,2147245791,2147559835,2147579263,2147361252,2340,0,-12,50175
1341997909,6504,196.3200073242187500,4.9089999198913570,34.9863014221191400,350.2450866699219000,761.5609130859375000,4.8816361427307130,34.0971794128418000,16,3,49,105,65,2147245394,2147560790,2147578431,2147363308,1808,0,-12,15683
1341997972,6466,193.3699951171875000,4.9088997840881350,34.9860000610351560,350.2038879394531000,761.5664062500000000,4.8814430236816410,34.0984992980957000,16,3,48,100,64,2147244396,2147561504,2147578148,2147362257,1402,0,-12,60763
1341998033,6468,190.5399932861328000,4.9084000587463380,34.9864997863769500,350.2243041992187500,761.5698242187500000,4.8813271522521970,34.0979881286621100,16,3,48,102,64,2147243341,2147559926,2147580470,2147361613,932,0,-12,34570
1341998096,6467,187.6300048828125000,4.9081001281738280,34.9865989685058600,350.2608032226562500,761.5775146484375000,4.8810539245605470,34.0970306396484400,16,3,48,103,63,2147243561,2147561252,2147582860,2147361270,291,0,-12,5107
1341998157,6469,184.8399963378906200,4.9084000587463380,34.9860000610351560,350.2813110351562500,761.5808715820312000,4.8809380531311035,34.0961608886718750,16,3,50,104,64,2147246308,2147561604,2147584676,2147363144,3081,0,-12,32864
1341998220,6467,181.9600067138672000,4.9079999923706055,34.9863014221191400,350.2174072265625000,761.5883789062500000,4.8806738853454590,34.0984916687011700,16,3,48,106,64,2147242262,2147563844,2147588100,2147363615,2454,0,-12,29417
1341998281,6469,179.1900024414062500,4.9078998565673830,34.9864006042480500,350.2153930664062500,761.5872192382812000,4.8807158470153810,34.0988311767578100,16,3,50,104,64,2147245499,2147560100,2147591871,2147362682,2011,0,-12,30549
1341998344,6466,176.3600006103515600,4.9081001281738280,34.9860000610351560,350.2854919433594000,761.5922241210938000,4.8805389404296875,34.0965690612793000,16,3,48,108,64,2147249353,2147561283,2147593266,2147365814,1613,0,-12,61329
1341998405,6467,173.6399993896484400,4.9074001312255860,34.9864997863769500,350.1756896972656000,761.5960083007812000,4.8804068565368650,34.1002998352050800,11,3,48,104,64,2147243409,2147557777,2147594934,2147366112,1130,0,-12,21381
1341998468,6466,170.8800048828125000,4.9077000617980960,34.9858016967773440,350.1943054199219000,761.5985717773438000,4.8803157806396480,34.0994415283203100,16,3,49,104,64,2147243290,2147558751,2147599236,2147363720,586,0,-12,44737
1341998529,6467,168.1900024414062500,4.9074997901916500,34.9859008789062500,350.2272949218750000,761.6024780273438000,4.8801779747009280,34.0986595153808600,16,3,49,108,62,2147243514,2147560639,2147605818,2147366098,3564,0,-12,25986
1341998592,6468,165.4700012207031200,4.9071002006530760,34.9860992431640600,350.2560119628906000,761.6107177734375000,4.8798918724060060,34.0979499816894500,16,3,48,108,62,2147244589,2147561298,2147605124,2147363217,2972,0,-12,16044
1341998653,6468,162.8600006103515600,4.9072999954223630,34.9859008789062500,350.1336059570312500,761.6137084960938000,4.8797869682312010,34.1018295288085940,16,3,48,109,64,2147242682,2147563350,2147612689,2147365403,2485,0,-12,21039
1341998716,6466,160.1300048828125000,4.9067997932434080,34.9861984252929700,350.2051086425781000,761.6193847656250000,4.8795847892761230,34.0996398925781250,16,3,48,112,64,2147244946,2147565362,2147620218,2147367816,2137,0,-12,35577
1341998777,6503,157.5099945068359400,4.9067997932434080,34.9860992431640600,350.3125915527344000,761.6223144531250000,4.8794860839843750,34.0959205627441400,16,3,48,106,64,2147244250,2147567670,2147624173,2147366751,1717,0,-12,16216
1341998840,6466,154.8099975585937500,4.9067001342773440,34.9858016967773440,350.3536987304687500,761.6290283203125000,4.8792529106140140,34.0948295593261700,16,3,48,106,64,2147240882,2147567496,2147629910,2147368772,1333,0,-12,47187
1341998901,6469,152.1799926757812500,4.9059000015258790,34.9864997863769500,350.2604980468750000,761.6345825195312000,4.8790550231933590,34.0982284545898440,16,3,50,107,65,2147245375,2147569837,2147639547,2147371250,898,0,-12,21554
1341998964,6468,149.5299987792968800,4.9053997993469240,34.9868011474609400,350.3507995605469000,761.6414184570312000,4.8788189888000490,34.0949096679687500,16,3,49,109,62,2147245791,2147572639,2147649549,2147371807,379,0,-12,23603
1341999025,6468,146.9900054931640600,4.9053997993469240,34.9865989685058600,350.4787902832031000,761.6442871093750000,4.8787159919738770,34.0908203125000000,16,3,49,106,64,2147244195,2147572612,2147656282,2147374449,3236,0,-12,1483
1341999088,6503,144.3699951171875000,4.9056000709533690,34.9863014221191400,350.4677124023437500,761.6463012695312000,4.8786468505859375,34.0913887023925800,11,3,50,108,64,2147245257,2147572525,2147670449,2147374207,2667,0,-12,54292
1341999149,6467,141.9100036621093800,4.9057998657226560,34.9860992431640600,350.3583984375000000,761.6478881835938000,4.8785901069641110,34.0948410034179700,16,3,48,107,64,2147246010,2147577183,2147677005,2147374783,2323,0,-12,32020
1341999212,6468,139.4100036621093800,4.9059000015258790,34.9860992431640600,350.4020080566406000,761.6436157226562000,4.8787398338317870,34.0936584472656250,27,3,49,108,65,2147244264,2147578980,2147690861,2147380260,1922,0,-12,18590
1341999273,6468,137.0200042724609400,4.9056000709533690,34.9863014221191400,350.3908081054687500,761.6475830078125000,4.8785967826843260,34.0938301086425800,16,3,50,109,65,2147244859,2147577490,2147691332,2147377050,1613,0,-12,45330
1341999364,6468,132.7700042724609400,4.9057998657226560,34.9859008789062500,350.1813049316406000,761.6696777343750000,4.8778271675109860,34.1012115478515600,11,3,50,113,65,2147243396,2147581371,2147714979,2147382468,956,0,-12,6062
1341999425,6468,129.0200042724609400,4.9053997993469240,34.9863014221191400,350.3272094726562500,761.6729125976562000,4.8777179718017580,34.0967788696289060,16,3,50,114,65,2147245266,2147582874,2147726345,2147382770,72,0,-12,22187
1341999488,6504,125.1500015258789000,4.9054999351501465,34.9861984252929700,350.2897949218750000,761.6663208007812000,4.8779468536376950,34.0975990295410160,16,3,50,111,64,2147243949,2147587661,2147746701,2147384881,2659,0,-12,9213
1341999549,6466,121.3899993896484400,4.9050998687744140,34.9865989685058600,350.1358032226562500,761.6657714843750000,4.8779640197753910,34.1029701232910160,16,3,50,117,65,2147244964,2147588799,2147766966,2147387254,1929,0,-12,54125
1341999637,6467,116.5899963378906200,4.9071002006530760,34.9858016967773440,349.9932861328125000,761.6259155273438000,4.8793601989746090,34.1067886352539060,16,3,49,113,65,2147248580,2147596598,2147794665,2147394573,1142,0,-12,45231
1341999698,6468,114.0500030517578100,4.9071002006530760,34.9859008789062500,349.9631958007812500,761.6196289062500000,4.8795800209045410,34.1078796386718750,16,3,50,113,64,2147246628,2147601224,2147817274,2147397970,675,0,-12,12730
1341999761,6468,111.4400024414062500,4.9071998596191410,34.9859008789062500,349.8377075195312500,761.6121215820312000,4.8798451423645020,34.1119804382324200,16,3,50,120,64,2147249818,2147598490,2147797325,2147393297,123,0,-12,62848
1341999822,6468,108.9300003051757800,4.9074001312255860,34.9858016967773440,349.7762145996094000,761.6096191406250000,4.8799319267272950,34.1139106750488300,16,3,49,113,64,2147249864,2147610733,2147854216,2147403547,3133,0,-12,58507
1341999885,6504,106.3000030517578100,4.9074001312255860,34.9858016967773440,349.8681945800781000,761.5979003906250000,4.8803410530090330,34.1104087829589840,16,3,50,118,64,2147250239,2147622481,2147921937,2147417187,2666,0,-12,4358
1341999946,6466,103.7500000000000000,4.9072999954223630,34.9860000610351560,349.6357116699219000,761.5952758789062000,4.8804340362548830,34.1182594299316400,19,3,50,125,64,2147249855,2147633137,2147972192,2147420291,2263,0,-12,34710
1342000009,6468,101.1500015258789000,4.9107999801635740,34.9855003356933600,349.6723937988281000,761.5186157226562000,4.8831181526184080,34.1155204772949200,16,3,50,117,64,2147256740,2147645704,2148015158,2147431520,1947,0,-12,44067
1342000070,6468,98.6999969482421900,4.9102001190185550,34.9860000610351560,349.5931091308594000,761.5075073242188000,4.8835048675537110,34.1178894042968750,16,3,50,120,62,2147257348,2147653165,2148066842,2147439602,1634,0,-12,53531
1342000133,6468,96.2099990844726600,4.9113998413085940,34.9852981567382800,349.4968872070312500,761.4927978515625000,4.8840222358703610,34.1208305358886700,16,3,50,120,64,2147256105,2147666723,2148114317,2147449343,1243,0,-12,15167
1342000194,6468,93.8099975585937500,4.9114999771118160,34.9855995178222660,349.5477905273437500,761.4818725585938000,4.8844008445739750,34.1190986633300800,16,3,50,119,64,2147260598,2147679647,2148165014,2147459350,914,0,-12,65006
1342000282,6466,89.7200012207031200,4.9126000404357910,34.9855995178222660,349.5025024414062500,761.4647216796875000,4.8850040435791020,34.1201782226562500,16,3,50,126,64,2147266911,2147703313,2148262957,2147478472,3520,0,-12,46445
1342000343,6467,86.0699996948242200,4.9140000343322750,34.9854011535644500,349.2968139648437500,761.3920288085938000,4.8875498771667480,34.1257019042968750,11,3,50,122,64,2147267601,2147722193,2148336685,2147491935,2573,0,-12,30544
1342000406,6468,82.2699966430664000,4.9229001998901370,34.9851989746093750,349.3056945800781000,761.1356811523438000,4.8965229988098145,34.1204490661621100,16,3,50,123,64,2147276895,2147744332,2148430262,2147516411,1851,0,-12,12188
1342000467,6467,78.5299987792968800,4.9260997772216800,34.9850997924804700,349.2886047363281000,761.0831298828125000,4.8983631134033200,34.1199913024902340,16,3,50,122,65,2147285344,2147782266,2148559561,2147543894,1193,0,-12,60606
1342000555,6468,73.6600036621093800,4.9272999763488770,34.9850997924804700,349.2497863769531000,761.0330200195312000,4.9001159667968750,34.1201896667480500,16,3,51,121,65,2147302024,2147847555,2148800607,2147596744,307,0,-12,5209
1342000616,6468,71.1500015258789000,4.9288001060485840,34.9847984313964840,349.1289978027344000,760.9990844726562000,4.9013037681579590,34.1236991882324200,16,3,50,125,64,2147314714,2147906865,2148985434,2147637028,3392,0,-12,47298
1342000679,6465,68.6999969482421900,4.9317002296447750,34.9854011535644500,349.1538085937500000,760.9010009765625000,4.9047369956970215,34.1209983825683600,16,3,50,121,65,2147337873,2147977846,2149226477,2147692127,2820,0,-12,55030
1342000740,6467,66.3799972534179700,4.9345998764038090,34.9847984313964840,349.1525878906250000,760.8325195312500000,4.9071388244628910,34.1195907592773440,16,3,50,122,65,2147355601,2148044969,2149439135,2147741554,2526,0,-12,35176
1342000828,6503,62.5200004577636700,4.9600000381469730,34.9847984313964840,348.7615966796875000,760.1713256835938000,4.9302768707275390,34.1197395324707000,18,3,52,128,64,2147396447,2148168552,2149820781,2147843414,1775,0,-12,23275
1342000889,6467,59.1399993896484400,5.0254998207092285,34.9845008850097660,348.2424926757812500,758.3402099609375000,4.9943242073059080,34.1010513305664060,16,3,55,134,66,2147443341,2148270034,2150128731,2147934729,1408,0,-12,45004
1342000952,6468,55.7999992370605500,5.0598001480102540,34.9856986999511700,348.1090087890625000,757.2913818359375000,5.0309848785400390,34.0849189758300800,14,3,62,141,66,2147483835,2148351218,2150342778,2148016036,1078,0,-12,25609
1342001013,6466,52.6899986267089840,5.1503000259399410,34.9875984191894500,347.8913879394531000,754.8875122070312000,5.1149578094482420,34.0452117919921900,16,3,79,147,66,2147540475,2148447396,2150594093,2148110783,242,0,-12,10514
1342001076,6468,49.4599990844726560,5.1662001609802250,34.9894981384277340,348.0939941406250000,754.2390136718750000,5.1375918388366700,34.0255699157714840,16,3,85,150,66,2147615295,2148570175,2150929055,2148239999,2847,0,-12,16176
1342001137,6468,46.2400016784668000,5.1763000488281250,34.9898986816406250,348.2669067382812500,753.9240722656250000,5.1485838890075680,34.0133399963378900,15,3,88,145,66,2147741348,2148800018,2151519510,2148455542,2257,0,-12,64298
1342001200,6503,42.7900009155273440,5.1996998786926270,34.9902000427246100,348.2540893554687500,753.2885742187500000,5.1707568168640140,34.0013694763183600,15,3,97,156,67,2147877032,2148989914,2151903784,2148626376,1741,0,-12,54495
1342001261,6469,39.3100013732910160,5.2241997718811035,34.9907989501953100,348.2668151855469000,752.5944824218750000,5.1949710845947270,33.9874610900878900,16,3,103,149,64,2148175770,2149527876,2153324433,2149150312,1181,0,-12,14814
1342001324,6470,35.7099990844726560,5.3083000183105470,34.9925003051757800,348.2803955078125000,750.2365112304688000,5.2771759033203125,33.9408798217773440,27,3,132,163,66,2148579990,2150136054,2154677696,2149704602,713,0,-12,34829
1342001385,6468,32.4000015258789060,5.3340997695922850,34.9950981140136700,348.6064147949219000,749.2562255859375000,5.3113250732421875,33.9107398986816400,22,3,138,165,65,2149168987,2150976259,2156514531,2150501792,3274,0,-12,55538
1342001448,6504,29.1100006103515620,5.4883999824523930,34.9972991943359400,349.0409851074219000,745.2775878906250000,5.4497809410095215,33.8188514709472660,29,3,172,187,66,2149941681,2151929800,2158351930,2151397302,2546,0,-12,57330
1342001509,6470,26.1499996185302730,5.5922999382019040,34.9989013671875000,350.3092041015625000,742.3952026367188000,5.5499458312988280,33.7205696105957000,27,3,221,235,66,2150843089,2152923382,2160285659,2152414395,1691,0,-12,18456
1342001572,6467,23.2000007629394530,5.6131000518798830,35.0005989074707000,352.0317077636719000,741.3400268554688000,5.5865840911865230,33.6430702209472660,27,3,227,243,66,2152207190,2154364758,2162816667,2153854765,1350,1,-12,41280
1342001633,6469,20.4500007629394530,6.3811001777648930,34.9967994689941400,352.6310119628906000,719.5924072265625000,6.3381347656250000,33.2127189636230500,65,3,478,486,64,2154726723,2157163977,2167513165,2156167309,1469,1,-10,7489
1342001696,6470,18.7299995422363280,6.8502998352050780,35.0080986022949200,362.5114135742187500,706.1350708007812000,6.7998771667480470,32.6459503173828100,80,3,564,571,66,2157319058,2160137059,2172314477,2158456493,2165,0,-12,64794
1342001768,6470,17.5499992370605470,7.3340001106262210,35.0105018615722660,368.3389892578125000,692.5925292968750000,7.2620811462402340,32.2201309204101560,97,3,561,574,66,2159767537,2162750097,2176186408,2160366957,2614,-1,-12,20981
1342001882,6469,15.5600004196167000,10.2800998687744140,35.0256996154785160,363.0396118164062500,607.6865234375000000,10.1078395843505860,30.9615592956542970,88,3,725,542,62,2165401865,2169069275,2184887816,2164662838,656,1,-13,37123
1342002007,6470,13.0100002288818360,10.9298000335693360,35.0508995056152340,361.5650939941406000,583.9669799804688000,10.8882904052734380,30.6348705291748050,84,3,639,496,64,2177783510,2183053315,2203592552,2174077608,976,1,-13,44147
1342002068,6468,11.2100000381469730,11.2107000350952150,35.0625000000000000,357.3857116699219000,574.6917114257812000,11.1919202804565430,30.6212005615234380,80,3,602,533,61,2188522623,2195095515,2218662207,2182100329,1418,-2,-10,46899
1342002147,6469,8.8800001144409180,11.2608995437622070,35.0581016540527340,355.2627868652344000,572.6514892578125000,11.2585897445678710,30.6561107635498050,80,3,399,498,60,2211249421,2219970376,2246705868,2198461828,1079,-3,-16,52496
1342002211,6469,6.1700000762939450,11.2687997817993160,35.0592002868652340,355.0255126953125000,572.1461791992188000,11.2750997543334960,30.6556606292724600,77,3,272,473,62,2251407784,2264238637,2293205622,2228655825,3138,0,-12,22697
1342002277,6469,2.6400001049041750,11.2706003189086910,35.0592994689941400,355.3406982421875000,572.0598754882812000,11.2779102325439450,30.6444206237792970,82,3,185,464,49,2333654111,2351322760,2372541010,2308703871,360,10,-1,41170
1342002337,6470,5.0000000000000000,0.0000000000000000,0.0000000000000000,355.1552124023437500,571.4141845703125000,11.2989997863769530,30.6404304504394530,77,3,178,456,62,2400200836,2400777759,2430416977,2394833526,2307,8,-7,24466
